カタログに戻る

LEMUR-2-DELOITTE-4

運用中SSO
NORAD 69934·PAYLOAD·🇺🇸 United States

打ち上げ Jul 7, 2026 から Vandenberg Space Force Base

Loading…

次のパス (今後24時間)

TLE

最新Source: Space-Track

元期: Sep 14, 2026, 11:02 UTC

1 69934U 26156BT  26257.46041658  .00001804  00000-0  18015-3 0  9998
2 69934  97.7467 156.8486 0008149 297.0880  62.9508 14.92723828 10318

AllMySatでLEMUR-2-DELOITTE-4をリアルタイム追跡

Download on the App Store